Notices

What's New in latest Release from April 7th, 2021:

- Updated Glossary, including Speed of Maximum Gust, and Total Hourly Precipitation

- Updated national and regional climate services offices contacts and prices information

- Addition of station inventory lists for 1981-2010, 1971-2000, and 1961-1990 Normals.

If you haven't already, please take our survey and provide feedback about our website: https://eccc.sondage-survey.ca/f/LanguageSelection.aspx?s=442ca660-fcf1-47c0-95a9-59707d6fd709

Hourly Data Report for July 31, 2020

TORONTO CITY
ONTARIO
Current Station Operator: ECCC - MSC

43°40'00.000" N
79°24'00.000" W
112.50 m
6158355
71508
XTO

Download Data

Hourly Data (July 2020)
Hourly Data Report for July 31, 2020
TIME
LST
Temp Definition
°C
Dew Point Definition
°C
Rel Hum Definition
%
Precip. Amount Definition
mm

Wind Dir Definition
10's deg

Wind Spd Definition
km/h
Visibility Definition
km
Stn Press Definition
kPa
Hmdx Definition


Wind Chill Definition


Weather Definition


00:00 22.3 14.3 61 0.0       99.87 26   LegendNANA
01:00 21.4 15.3 68 0.0       99.84 26   LegendNANA
02:00 20.9 15.4 71 0.0       99.80 25   LegendNANA
03:00 20.5 15.5 73 0.0       99.78 25   LegendNANA
04:00 20.4 15.7 74 0.0       99.82 25   LegendNANA
05:00 20.0 15.4 75 0.0       99.85     LegendNANA
06:00 20.0 15.1 73 0.0       99.87     LegendNANA
07:00 20.9 15.1 69 0.0       99.90 25   LegendNANA
08:00 23.3 14.7 59 0.0       99.95 27   LegendNANA
09:00 25.0 13.5 49 0.0       99.95 28   LegendNANA
10:00 26.2 13.6 46 0.0       99.96 29   LegendNANA
11:00 26.2 12.4 42 0.0       99.96 29   LegendNANA
12:00 26.0 12.5 43 0.0       99.95 29   LegendNANA
13:00 26.8 12.8 42 0.0       99.95 29   LegendNANA
14:00 27.8 12.3 38 0.0       99.92 30   LegendNANA
15:00 28.0 12.2 37 0.2       99.90 30   LegendNANA
16:00 28.0 13.2 40 0.5       99.90 31   LegendNANA
17:00 26.5 12.5 42 0.0       99.89 29   LegendNANA
18:00 26.2 12.2 42 0.2       99.87 29   LegendNANA
19:00 25.4 13.9 49 0.0       99.89 29   LegendNANA
20:00 24.3 12.4 47 0.0       99.93 27   LegendNANA
21:00 23.5 13.1 52 0.0       100.01 26   LegendNANA
22:00 23.1 13.9 56 0.0       100.02 26   LegendNANA
23:00 22.7 15.2 62 0.0       100.03 27   LegendNANA

Notes on Data Quality.

Legend

  • E = Estimated
  • M = Missing
  • NA = Not Available*
  • [empty] = Indicates an unobserved value
Date modified: